Weather Service Report


248 
ASUS41 KGYX 281010
RWRGYX
WEATHER ROUNDUP FOR MAINE AND NEW HAMPSHIRE
NATIONAL WEATHER SERVICE GRAY ME
600 AM EDT SAT MAY 28 2016

MEZ002-005-006-010-012-015-018-020-021-024-026-027-029-281100-
MAINE
  
CITY           SKY/WX    TMP DP  RH WIND       PRES   REMARKS
PORTLAND       CLOUDY    53  52  96 CALM      30.04R FOG              
SANFORD        CLEAR     52  46  82 CALM      30.04S                  
BAR HARBOR     CLOUDY    52  51  97 W3        30.03R FOG              
WISCASSET      FOG       52  51  97 CALM      30.05R VSB 1/2          
ROCKLAND       FOG       51  51 100 CALM      30.03S VSB 1/4          
FRYEBURG       MOCLDY    55  55 100 CALM      30.04R FOG              
LEWISTONAUBURN PTCLDY    52  48  87 CALM      30.03R                  
AUGUSTA        FOG       52  52 100 CALM      30.03R VSB<1/4          
WATERVILLE     CLOUDY    52  52 100 SW5       30.00S FOG              
BANGOR         MOCLDY    55  52  89 S3        30.03R FOG              
GREENVILLE       N/A     58  55  90 CALM      30.02R                  
MILLINOCKET    FOG       52  52 100 CALM      30.02R VSB<1/4          
HOULTON        FOG       53  52  96 CALM      30.01R VSB 1/4          
PRESQUE ISLE   CLOUDY    55  55 100 CALM      30.03R FOG              
FRENCHVILLE    CLOUDY    52  50  93 NW16G23   30.01R                  
CARIBOU        FOG       54  53  97 CALM      30.01R VSB 1/4          
$$

NHZ002-005-008-009-011-012-014-281100-
NEW HAMPSHIRE
  
CITY           SKY/WX    TMP DP  RH WIND       PRES   REMARKS
PORTSMOUTH     MOCLDY    56  53  91 CALM      30.02R                  
ROCHESTER      CLEAR     57  53  86 CALM      30.03R                  
NASHUA         CLOUDY    68  64  87 CALM      30.05R                  
MANCHESTER     MOCLDY    68  62  81 CALM      30.03R                  
CONCORD        MOCLDY    61  59  93 CALM      30.05R FOG              
LACONIA        CLEAR     63  62  97 W3        30.06R                  
PLYMOUTH       FOG       60  59  97 CALM      30.05R VSB 1/4          
BERLIN         CLOUDY    61  58  90 CALM      30.07R FOG              
WHITEFIELD     MOCLDY    60  57  89 CALM      30.07R FOG              
JAFFREY        CLEAR     64  61  90 S6        30.09R FOG              
KEENE          CLEAR     63  61  94 CALM      30.09R VSB 1            
LEBANON        CLEAR     64  62  93 CALM      30.05R FOG              
MT WASHINGTON  FOG       54  54 100 W39         N/A  VSB 0            
$$

VTZ005-007-008-281100-
VERMONT
  
CITY           SKY/WX    TMP DP  RH WIND       PRES   REMARKS
ST JOHNSBURY     N/A     64  61  90 MISG      30.05R                  
MONTPELIER     FAIR      63  61  93 E3        30.11R                  
BURLINGTON     FAIR      70  65  84 CALM      30.04R                  
$$

MAZ007-012-024-CTZ003-RIZ002-NYZ038-NYZ072-281100-
SOUTHERN NEW ENGLAND AND NY
  
CITY           SKY/WX    TMP DP  RH WIND       PRES   REMARKS
BOSTON         PTCLDY    67  58  72 SW10      30.04S                  
WORCESTER      CLEAR     64  60  87 W12       30.09R                  
NANTUCKET      MOCLDY    61  58  90 W18       30.13R                  
PROVIDENCE     MOCLDY    64  57  78 S6        30.08S                  
HARTFORD       MOCLDY    65  60  84 S5        30.07R                  
ALBANY         MOCLDY    68  66  93 CALM      30.07R                  
NEW YORK CITY  MOCLDY    73  63  70 SW8       30.10R                  
$$

ANZ081-ANZ082-ANZ150-NHZ014-MEZ023>029-281100-
COASTAL MARINE OBSERVATIONS
  
STATION/POSITION TIME  TEMP    WIND        PRES    WAVE
                       AIR SEA DIR/SP/G            HT/PER
                 (UTC) (F)     (DEG/KT/KT) (MB)    (FT/S)
MOUNT DESERT ROC 1000   49     170/  9/  9 1016.7R
MATINICUS ROCK   1000   51     180/  1/  2 1016.7R
ISLE OF SHOALS   1000   55     360/  5/  5 1016.9R
JEFFREYS LEDGE   0908      53                N/A     3/ 4
CASHES LEDGE BUO 0950   54 51  210/  8/  8 1016.4R   3/ 5
GEORGES BANK BUO 0850   56 52              1020.4    2/ 7
$$

.............KEY..............
   WCI - WIND CHILL
   TC  - TEMPERATURE IN CELSIUS
   VSB - VISIBILITY IN MILES
   HX  - HEAT INDEX
   FAIR- INDICATES FEW OR NO CLOUDS BELOW 12,000 FT, WITH NO 
         SIGNIFICANT WEATHER AND/OR OBSTRUCTIONS TO VISIBILITY.


  

Return to Home page


Western Regional Climate Center, wrcc@dri.edu